Tracking 31011 objects as of 12-Jul-2025
HD Live streaming from Space Station
objects crossing your sky now

INSAT 4A

Track INSAT 4A now!
INSAT 4A is classified as:


NORAD ID: 28911
Int'l Code: 2005-049A
Perigee: 36,074.3 km
Apogee: 36,120.7 km
Inclination: 5.6 °
Period: 1,451.6 minutes
Semi major axis: 42468 km
RCS: 12.5892 m2 (large)
Launch date: December 21, 2005
Source: India (IND)
Launch site: FRENCH GUIANA (FRGUI)
Your satellite tracking list
Your tracking list is empty




NASA's NSSDC Master Catalog

Two Line Element Set (TLE):
1 28911U 05049A   25193.22825250 -.00000117  00000-0  00000+0 0  9994
2 28911   5.5660  75.9168 0005457 105.9398 116.7618  0.99197923 71453
Source of the keplerian elements: AFSPC